Regional Weather Roundup
Issued by NWS

Home | Current Version | Previous Version | Text Only | Print | Product List | Glossary On
Versions: 1 2 3 4 5 6 7 8 9 10 11 12 13 14 15 16 17 18 19 20 21 22 23 24 25 26 27 28 29 30 31 32 33 34 35 36 37 38 39 40 41 42 43 44 45 46 47 48 49 50
000
ASUS43 KLSX 231010
RWRMO

WEATHER SUMMARY FOR MISSOURI
NATIONAL WEATHER SERVICE SPRINGFIELD MO
500 AM CDT SAT JUN 23 2018

NOTE: "FAIR" INDICATES FEW OR NO CLOUDS BELOW 12,000 FEET WITH NO
       SIGNIFICANT WEATHER AND/OR OBSTRUCTIONS TO VISIBILITY.
       CURRENT SKY AND/OR WEATHER CONDITIONS ARE NOT AVAILABLE FOR
       CHILLICOTHE AND FARMINGTON.

MOZ001>031-035>038-043-044-053-054-231100-
...NORTHERN AND WESTERN MISSOURI...

CITY           SKY/WX    TMP DP  RH WIND       PRES   REMARKS
KANSAS CTY INT CLOUDY    62  62 100 CALM      29.80R
KANSAS C DTWN  CLOUDY    67  62  84 CALM      29.80R
LEE`S SUMMIT   MOCLDY    65  64  97 CALM      29.82R
ST JOSEPH      FOG       61  61 100 CALM      29.79S VSB 1/4
CHILLICOTHE      N/A     66  65  96 CALM      29.80R
KIRKSVILLE     CLEAR     62  62 100 NW5       29.78S

$$
MOZ066>068-077>081-088>096-101>105-231100-
...SOUTHWEST MISSOURI...

CITY           SKY/WX    TMP DP  RH WIND       PRES   REMARKS
SPRINGFIELD    MOCLDY    67  63  87 SE3       29.78R
JOPLIN         CLOUDY    67  64  90 E5        29.78R
BRANSON        LGT RAIN  66  63  88 S9        29.83R

$$
MOZ032>034-039>042-045>050-055>058-069>072-231100-
...CENTRAL MISSOURI...

CITY           SKY/WX    TMP DP  RH WIND       PRES   REMARKS
COLUMBIA       PTCLDY    65  63  93 CALM      29.78R
JEFFERSON CITY MOCLDY    68  64  87 S5        29.79R
ROLLA          CLEAR     62  61  96 S3        29.80R
SEDALIA        MOCLDY    66  65  96 SW6       29.83R
WHITEMAN AFB   MOCLDY    65  63  94 CALM      29.77R
WARRENSBURG    MOCLDY    64  63  94 S5        29.81S
OSAGE BEACH    CLOUDY    62  62 100 CALM      29.81R

$$
MOZ051-052-059>065-231100-
...EAST CENTRAL MISSOURI...

CITY           SKY/WX    TMP DP  RH WIND       PRES   REMARKS
ST LOUIS INTL  CLOUDY    68  64  87 W5        29.77R
SPIRIT OF STL  CLOUDY    68  65  90 CALM      29.76S
ST CHARLES     CLOUDY    67  65  93 W6        29.75F

$$
MOZ072>076-082>087-097>100-106>115-231100-
...SOUTH CENTRAL AND SOUTHEAST MISSOURI...

CITY           SKY/WX    TMP DP  RH WIND       PRES   REMARKS
CAPE GIRARDEAU FAIR      66  64  93 S3        29.79S
FARMINGTON     MOCLDY    62  61  96 CALM      29.82R
POPLAR BLUFF   FAIR      67  67 100 N3        29.80R
WEST PLAINS    MOCLDY    64  62  93 SE3       29.82F

$$



USA.gov is the U.S. government's official web portal to all federal, state and local government web resources and services.